Szeged, Hungary

7:34 PM CEST on August 28, 2016 (GMT +0200)
Szeged

Weather History for LHUD - February, 2013

Change the Weather History Date:

Tuesday, February 12, 2013

  Actual Average (LRAR) Record (LRAR)
Temperature  
Mean Temperature 33 °F -  
Max Temperature 41 °F 45 °F 62 °F (1998)
Min Temperature 25 °F 30 °F 8 °F (2003)
Degree Days  
Heating Degree Days 32    
Moisture  
Dew Point 29 °F    
Average Humidity 72    
Maximum Humidity 86    
Minimum Humidity 56    
Precipitation  
Precipitation 0.00 in 0.03 in - ()
Sea Level Pressure  
Sea Level Pressure 29.80 in    
Wind  
Wind Speed 14 mph ()    
Max Wind Speed 21 mph    
Max Gust Speed 33 mph    
Visibility 7.4 miles    
Events Rain , Snow    
Averages and records for this station are not official NWS values.
T = Trace of Precipitation, MM = Missing Value Source: Averaged Metar Reports

Daily Weather History Graph

Daily Weather History Graph

Search for Another Location

Airport or City:

Trip Planner

Search our weather history database for the weather conditions in past years. The results will help you decide how hot, cold, wet, or windy it might be!

Date:

Astronomy

Feb. 12, 2013 Rise Set
Actual Time 6:47 AM CET 5:00 PM CET
Civil Twilight 6:16 AM CET 5:32 PM CET
Nautical Twilight 5:41 AM CET 6:07 PM CET
Astronomical Twilight 5:06 AM CET 6:42 PM CET
Moon 7:23 AM CET (2/12) 7:55 PM CET (2/12)
Length of Visible Light 11h 15m
Length of Day
10h 13m
Waxing Crescent, 6% of the Moon is Illuminated
Feb 12
Waxing Crescent
Feb 17
First Quarter
Feb 25
Full
Mar 4
Last Quarter
Mar 11
New

Hourly Weather History & Observations

Time (CET) Temp. Windchill Dew Point Humidity Pressure Visibility Wind Dir Wind Speed Gust Speed Precip Events Conditions
12:45 AM 28.4 °F 19.1 °F 24.8 °F 86% 29.89 in - East 10.4 mph - N/A   Clear
1:00 AM 28 °F - 24 °F 78% 29.89 in 6 mi East 8.9 mph - -   Partly Cloudy
1:45 AM 28.4 °F 19.1 °F 24.8 °F 86% 29.86 in - East 10.4 mph - N/A   Clear
2:45 AM 30.2 °F 20.8 °F 23.0 °F 75% 29.86 in - East 11.5 mph - N/A   Clear
3:45 AM 32.0 °F 22.5 °F 23.0 °F 69% 29.83 in - East 12.7 mph - N/A   Clear
4:45 AM 32.0 °F 21.2 °F 23.0 °F 69% 29.80 in - East 16.1 mph - N/A   Clear
5:15 AM 32.0 °F 21.6 °F 23.0 °F 69% 29.80 in - East 15.0 mph - N/A   Clear
5:45 AM 32.0 °F 22.5 °F 24.8 °F 75% 29.80 in - ESE 12.7 mph - N/A   Clear
6:15 AM 32.0 °F 22.1 °F 24.8 °F 75% 29.80 in - ESE 13.8 mph - N/A   Clear
6:45 AM 32.0 °F 22.1 °F 24.8 °F 75% 29.80 in - ESE 13.8 mph - N/A   Clear
7:00 AM 33 °F - 25 °F 62% 29.80 in 12 mi ESE 13.4 mph - -   Partly Cloudy
7:15 AM 33.8 °F 23.5 °F 24.8 °F 70% 29.80 in - ESE 16.1 mph - N/A   Clear
7:45 AM 33.8 °F 23.9 °F 26.6 °F 75% 29.80 in - ESE 15.0 mph - N/A   Clear
8:01 AM 33.8 °F 23.9 °F 26.6 °F 75% 29.83 in 6.2 mi ESE 15.0 mph - N/A Rain Light Rain
8:15 AM 33.8 °F 23.5 °F 26.6 °F 75% 29.80 in 6.2 mi ESE 16.1 mph - N/A Rain Light Rain
8:45 AM 33.8 °F 23.2 °F 26.6 °F 75% 29.80 in 6.2 mi ESE 17.3 mph - N/A Rain , Snow Light Rain
9:15 AM 33.8 °F 23.2 °F 28.4 °F 81% 29.80 in 6.2 mi ESE 17.3 mph - N/A Rain , Snow Light Rain
9:23 AM 35.6 °F 25.2 °F 28.4 °F 75% 29.80 in - ESE 18.4 mph - N/A   Unknown
9:24 AM 35.6 °F 25.5 °F 28.4 °F 75% 29.83 in - ESE 17.3 mph - N/A   Clear
9:45 AM 35.6 °F 25.5 °F 28.4 °F 75% 29.80 in - ESE 17.3 mph - N/A   Clear
10:15 AM 35.6 °F 25.2 °F 28.4 °F 75% 29.80 in - ESE 18.4 mph - N/A   Clear
10:45 AM 37.4 °F 27.5 °F 28.4 °F 70% 29.80 in - ESE 18.4 mph - N/A   Clear
11:15 AM 37.4 °F 26.9 °F 28.4 °F 70% 29.80 in - ESE 20.7 mph - N/A   Clear
11:45 AM 37.4 °F 27.5 °F 28.4 °F 70% 29.80 in - ESE 18.4 mph - N/A   Clear
12:15 PM 37.4 °F 27.8 °F 30.2 °F 75% 29.80 in 6.2 mi ESE 17.3 mph - N/A Rain Light Rain
12:45 PM 37.4 °F 27.2 °F 30.2 °F 75% 29.77 in - ESE 19.6 mph - N/A   Clear
1:00 PM 38 °F - 29 °F 62% 29.79 in 19 mi ESE 17.9 mph - - Rain Light Rain
1:15 PM 39.2 °F 29.6 °F 30.2 °F 70% 29.77 in - SE 19.6 mph - N/A   Clear
1:45 PM 39.2 °F 29.6 °F 30.2 °F 70% 29.77 in 6.2 mi SE 19.6 mph - N/A   Overcast
2:15 PM 39.2 °F 30.5 °F 30.2 °F 70% 29.77 in 6.2 mi SE 16.1 mph - N/A Rain Light Rain
2:45 PM 39.2 °F 29.8 °F 30.2 °F 70% 29.77 in 6.2 mi SE 18.4 mph - N/A Rain Light Rain
3:15 PM 39.2 °F 30.2 °F 30.2 °F 70% 29.77 in 6.2 mi SE 17.3 mph - N/A   Overcast
3:45 PM 39.2 °F 30.8 °F 32.0 °F 75% 29.77 in - SE 15.0 mph - N/A   Clear
4:15 PM 39.2 °F 30.8 °F 32.0 °F 75% 29.77 in 6.2 mi SE 15.0 mph - N/A Rain Light Rain
4:45 PM 39.2 °F 30.5 °F 32.0 °F 75% 29.77 in 6.2 mi SE 16.1 mph - N/A Rain Light Rain
5:15 PM 39.2 °F 30.5 °F 32.0 °F 75% 29.77 in 6.2 mi SE 16.1 mph - N/A Rain Light Rain
5:45 PM 41.0 °F 32.8 °F 32.0 °F 70% 29.80 in 6.2 mi SE 16.1 mph - N/A Rain Light Rain
5:52 PM 41.0 °F 32.2 °F 32.0 °F 70% 29.80 in - SE 18.4 mph - N/A   Unknown
5:53 PM 41.0 °F 32.2 °F 32.0 °F 70% 29.80 in 6.2 mi SE 18.4 mph - N/A Rain Light Rain
6:15 PM 41.0 °F 32.2 °F 32.0 °F 70% 29.80 in 6.2 mi SE 18.4 mph - N/A   Mostly Cloudy
6:45 PM 41.0 °F 31.6 °F 30.2 °F 65% 29.80 in 6.2 mi SE 20.7 mph 33.4 mph N/A Rain Light Rain
7:00 PM 41 °F - 31 °F 56% 29.81 in 19 mi SE 20.1 mph - - Rain Light Rain
7:15 PM 41.0 °F 31.9 °F 30.2 °F 65% 29.80 in 6.2 mi SE 19.6 mph - N/A Rain Light Rain
7:45 PM 41.0 °F 32.8 °F 30.2 °F 65% 29.80 in 6.2 mi SE 16.1 mph - N/A Rain Light Rain
8:15 PM 39.2 °F 30.5 °F 32.0 °F 75% 29.83 in 6.2 mi SE 16.1 mph - N/A Rain Light Rain
8:45 PM 41.0 °F 33.1 °F 32.0 °F 70% 29.83 in 6.2 mi SE 15.0 mph - N/A Rain Light Rain
9:45 PM 39.2 °F 31.6 °F 32.0 °F 75% 29.83 in 6.2 mi SE 12.7 mph - N/A Rain Light Rain
10:45 PM 39.2 °F 32.5 °F 32.0 °F 75% 29.83 in 6.2 mi SE 10.4 mph - N/A Rain Light Rain
11:45 PM 39.2 °F 35.9 °F 32.0 °F 75% 29.83 in 6.2 mi SE 4.6 mph - N/A Rain Light Rain